Tracking 19563 objects as of 20-Mar-2019
HD Live streaming from Space Station
objects crossing your sky now

OPS 1127 (DMSP 4B F3)

Track OPS 1127 (DMSP 4B F3) now!
10-day predictions
OPS 1127 (DMSP 4B F3) is classified as:


NORAD ID: 4047
Int'l Code: 1969-062A
Perigee: 770.7 km
Apogee: 836.2 km
Inclination: 98.8 °
Period: 100.8 minutes
Semi major axis: 7174 km
RCS: 0.6649 m2 (medium)
Launch date: July 23, 1969
Source: United States (US)
Launch site: AIR FORCE WESTERN TEST RANGE (AFWTR)
aabbcc
Your satellite tracking list
Your tracking list is empty




NASA's NSSDC Master Catalog

Two Line Element Set (TLE):
1  4047U 69062A   19078.56438051 +.00000009 +00000-0 +21315-4 0  9990
2  4047 098.7853 291.6675 0045616 094.9270 265.7121 14.28637822583368
Source of the keplerian elements: AFSPC